timestamp,wind_dir_avg,wind_spd_avg,wind_spd_max_dir,wind_spd_gust,battery_voltage,lat,long
2022-02-24 00:04:00+00:00,212.0,10.88,214.0,12.78,12.41,47.59359,-54.27349
2022-02-24 00:14:01+00:00,210.0,11.25,211.0,12.74,12.33,47.59359,-54.27349
2022-02-24 00:24:01+00:00,214.0,12.29,228.0,15.15,12.33,47.59359,-54.27349
2022-02-24 00:34:01+00:00,210.0,10.98,215.0,12.24,12.33,47.59359,-54.27349
2022-02-24 00:44:01+00:00,210.0,10.44,203.0,12.51,12.33,47.59359,-54.27349
2022-02-24 00:54:01+00:00,209.0,10.76,213.0,12.4,12.33,47.59359,-54.27349
2022-02-24 01:04:01+00:00,211.0,11.02,214.0,12.58,12.33,47.59359,-54.27349
2022-02-24 01:14:01+00:00,211.0,11.34,212.0,13.55,12.33,47.59359,-54.27349
2022-02-24 01:24:01+00:00,208.0,10.47,211.0,11.86,12.33,47.59359,-54.27349
2022-02-24 01:34:01+00:00,209.0,10.66,213.0,11.93,12.33,47.59359,-54.27349
2022-02-24 01:44:01+00:00,208.0,10.73,209.0,12.76,12.33,47.59359,-54.27349
2022-02-24 01:54:01+00:00,209.0,9.66,216.0,11.65,12.33,47.59359,-54.27349
2022-02-24 02:04:01+00:00,211.0,9.09,213.0,10.62,12.33,47.59359,-54.27349
2022-02-24 02:14:01+00:00,209.0,9.5,215.0,11.51,12.33,47.59359,-54.27349
2022-02-24 02:24:01+00:00,205.0,8.87,207.0,10.39,12.33,47.59359,-54.27349
2022-02-24 02:34:01+00:00,203.0,9.25,205.0,10.58,12.33,47.59359,-54.27349
2022-02-24 02:44:01+00:00,202.0,9.08,206.0,10.35,12.33,47.59359,-54.27349
2022-02-24 02:54:01+00:00,201.0,8.98,205.0,9.88,12.33,47.59359,-54.27349
2022-02-24 03:04:01+00:00,207.0,8.74,206.0,10.59,12.33,47.59359,-54.27349
2022-02-24 03:14:01+00:00,209.0,9.59,212.0,11.64,12.33,47.59359,-54.27349
2022-02-24 03:24:01+00:00,212.0,8.85,208.0,9.95,12.33,47.59359,-54.27349
2022-02-24 03:34:01+00:00,213.0,9.67,213.0,12.02,12.33,47.59359,-54.27349
2022-02-24 03:44:01+00:00,205.0,9.51,207.0,10.68,12.33,47.59359,-54.27349
2022-02-24 03:54:01+00:00,200.0,9.25,200.0,10.35,12.33,47.59359,-54.27349
2022-02-24 04:04:01+00:00,201.0,11.17,203.0,12.29,12.33,47.59359,-54.27349
2022-02-24 04:14:01+00:00,207.0,11.01,207.0,12.25,12.33,47.59359,-54.27349
2022-02-24 04:24:01+00:00,207.0,10.27,207.0,11.5,12.33,47.59359,-54.27349
2022-02-24 04:34:01+00:00,209.0,9.93,212.0,12.12,12.33,47.59359,-54.27349
2022-02-24 04:44:01+00:00,214.0,11.33,228.0,14.43,12.33,47.59359,-54.27349
2022-02-24 04:54:01+00:00,203.0,9.6,205.0,10.94,12.33,47.59359,-54.27349
2022-02-24 05:04:01+00:00,208.0,10.0,209.0,11.11,12.33,47.59359,-54.27349
2022-02-24 05:14:00+00:00,207.0,11.6,203.0,14.27,12.33,47.59359,-54.27349
2022-02-24 05:24:00+00:00,205.0,12.74,208.0,13.99,12.33,47.59359,-54.27349
2022-02-24 05:34:00+00:00,208.0,12.17,211.0,14.84,12.33,47.59359,-54.27349
2022-02-24 05:44:00+00:00,206.0,11.82,206.0,13.52,12.33,47.59359,-54.27349
2022-02-24 05:54:00+00:00,208.0,12.4,208.0,14.22,12.33,47.59359,-54.27349
2022-02-24 06:04:00+00:00,210.0,11.79,207.0,13.54,12.33,47.59359,-54.27349
2022-02-24 06:14:00+00:00,209.0,12.25,208.0,14.62,12.25,47.59359,-54.27349
2022-02-24 06:24:00+00:00,207.0,12.14,204.0,14.23,12.25,47.59359,-54.27349
2022-02-24 06:34:00+00:00,210.0,13.37,217.0,16.24,12.25,47.59359,-54.27349
2022-02-24 06:44:00+00:00,210.0,13.33,214.0,16.18,12.25,47.59359,-54.27349
2022-02-24 06:54:00+00:00,209.0,13.25,204.0,15.45,12.25,47.59359,-54.27349
2022-02-24 07:04:00+00:00,208.0,13.16,209.0,15.37,12.25,47.59359,-54.27349
2022-02-24 07:14:00+00:00,210.0,14.91,215.0,17.68,12.25,47.59359,-54.27349
2022-02-24 07:24:00+00:00,209.0,15.26,213.0,17.55,12.25,47.59359,-54.27349
2022-02-24 07:34:00+00:00,213.0,15.03,201.0,18.05,12.25,47.59359,-54.27349
2022-02-24 07:44:00+00:00,216.0,11.8,224.0,13.77,12.25,47.59359,-54.27349
2022-02-24 07:54:00+00:00,229.0,13.91,229.0,16.46,12.25,47.59359,-54.27349
2022-02-24 08:04:00+00:00,228.0,14.23,225.0,17.41,12.25,47.59359,-54.27349
2022-02-24 08:14:00+00:00,231.0,14.63,228.0,17.33,12.25,47.59359,-54.27349
2022-02-24 08:24:00+00:00,234.0,14.26,234.0,16.22,12.25,47.59359,-54.27349
2022-02-24 08:34:00+00:00,234.0,15.14,235.0,16.77,12.25,47.59359,-54.27349
2022-02-24 08:44:00+00:00,236.0,12.48,237.0,15.11,12.25,47.59359,-54.27349
2022-02-24 08:54:00+00:00,241.0,11.66,248.0,14.25,12.25,47.59359,-54.27349
2022-02-24 09:04:00+00:00,260.0,14.95,262.0,20.12,12.25,47.59359,-54.27349
2022-02-24 09:14:01+00:00,251.0,13.4,262.0,17.6,12.25,47.59359,-54.27349
2022-02-24 09:24:01+00:00,249.0,12.13,245.0,13.83,12.25,47.59359,-54.27349
2022-02-24 09:34:01+00:00,260.0,11.72,266.0,14.48,12.25,47.59359,-54.27349
2022-02-24 09:44:01+00:00,264.0,11.09,264.0,12.57,12.25,47.59359,-54.27349
2022-02-24 09:54:01+00:00,258.0,10.61,260.0,11.95,12.25,47.59359,-54.27349
2022-02-24 10:04:01+00:00,266.0,9.25,268.0,11.35,12.25,47.59359,-54.27349
2022-02-24 10:14:01+00:00,270.0,10.67,271.0,12.88,12.25,47.59359,-54.27349
2022-02-24 10:24:01+00:00,268.0,11.67,266.0,13.75,12.25,47.59359,-54.27349
2022-02-24 10:34:01+00:00,273.0,12.47,272.0,15.81,12.25,47.59359,-54.27349
2022-02-24 10:44:01+00:00,282.0,11.93,281.0,16.87,12.25,47.59359,-54.27349
2022-02-24 10:54:01+00:00,271.0,8.94,270.0,10.73,12.25,47.59359,-54.27349
2022-02-24 11:04:01+00:00,262.0,11.29,270.0,16.92,12.25,47.59359,-54.27349
2022-02-24 11:14:00+00:00,268.0,16.09,269.0,18.79,12.33,47.59359,-54.27349
2022-02-24 11:24:00+00:00,270.0,17.62,278.0,19.32,12.33,47.59359,-54.27349
2022-02-24 11:34:00+00:00,274.0,17.06,270.0,23.7,12.33,47.59359,-54.27349
2022-02-24 11:44:00+00:00,269.0,17.2,267.0,19.63,12.33,47.59359,-54.27349
2022-02-24 11:54:00+00:00,271.0,17.3,281.0,19.13,12.33,47.59359,-54.27349
2022-02-24 12:04:00+00:00,280.0,17.68,289.0,20.05,12.33,47.59359,-54.27349
2022-02-24 13:14:00+00:00,285.0,20.8,289.0,25.01,13.6,47.59359,-54.27349
2022-02-24 13:24:00+00:00,285.0,20.93,287.0,24.75,13.6,47.59359,-54.27349
2022-02-24 13:34:00+00:00,275.0,16.64,278.0,22.91,13.6,47.59359,-54.27349
2022-02-24 13:44:00+00:00,270.0,18.89,278.0,23.41,13.6,47.59359,-54.27349
2022-02-24 13:54:00+00:00,277.0,20.95,286.0,24.34,13.6,47.59359,-54.27349
2022-02-24 14:04:00+00:00,272.0,12.45,266.0,18.03,13.6,47.59359,-54.27349
2022-02-24 14:14:00+00:00,276.0,11.59,277.0,14.88,13.76,47.59359,-54.27349
2022-02-24 14:24:00+00:00,269.0,20.87,271.0,23.18,13.76,47.59359,-54.27349
2022-02-24 14:34:00+00:00,268.0,20.39,277.0,23.4,13.76,47.59359,-54.27349
2022-02-24 14:44:00+00:00,273.0,18.04,281.0,23.42,13.76,47.59359,-54.27349
2022-02-24 14:54:00+00:00,270.0,12.78,273.0,20.26,13.76,47.59359,-54.27349
2022-02-24 15:04:00+00:00,282.0,15.18,281.0,22.23,13.76,47.59359,-54.27349
2022-02-24 15:14:00+00:00,277.0,20.4,281.0,23.61,14.16,47.59359,-54.27349
2022-02-24 15:24:00+00:00,278.0,21.48,279.0,23.09,14.16,47.59359,-54.27349
2022-02-24 15:34:00+00:00,286.0,17.9,289.0,22.67,14.16,47.59359,-54.27349
2022-02-24 15:44:00+00:00,284.0,17.41,283.0,23.36,14.16,47.59359,-54.27349
2022-02-24 15:54:00+00:00,297.0,16.07,287.0,20.91,14.16,47.59359,-54.27349
2022-02-24 16:04:00+00:00,294.0,14.44,294.0,16.22,14.16,47.59359,-54.27349
2022-02-24 16:14:00+00:00,282.0,13.03,284.0,15.69,14.0,47.59359,-54.27349
2022-02-24 16:24:00+00:00,287.0,15.42,282.0,20.7,14.0,47.59359,-54.27349
2022-02-24 16:34:00+00:00,281.0,14.66,287.0,21.16,14.0,47.59359,-54.27349
2022-02-24 16:44:00+00:00,280.0,14.52,284.0,19.55,14.0,47.59359,-54.27349
2022-02-24 16:54:00+00:00,280.0,13.7,275.0,20.12,14.0,47.59359,-54.27349
2022-02-24 17:04:00+00:00,284.0,16.4,288.0,21.25,14.0,47.59359,-54.27349
2022-02-24 17:14:01+00:00,283.0,15.76,281.0,19.22,14.4,47.59359,-54.27349
2022-02-24 17:24:01+00:00,289.0,14.07,294.0,15.71,14.4,47.59359,-54.27349
2022-02-24 17:34:01+00:00,292.0,13.97,298.0,15.81,14.4,47.59359,-54.27349
2022-02-24 17:44:01+00:00,291.0,13.92,299.0,17.0,14.4,47.59359,-54.27349
2022-02-24 17:54:01+00:00,280.0,13.24,272.0,16.46,14.4,47.59359,-54.27349
2022-02-24 18:04:01+00:00,295.0,14.67,292.0,17.0,14.4,47.59359,-54.27349
2022-02-24 18:14:01+00:00,288.0,14.24,285.0,17.87,13.68,47.59359,-54.27349
2022-02-24 18:24:01+00:00,276.0,13.76,274.0,16.13,13.68,47.59359,-54.27349
2022-02-24 18:34:01+00:00,294.0,14.21,300.0,15.46,13.68,47.59359,-54.27349
2022-02-24 18:44:01+00:00,288.0,13.51,288.0,14.85,13.68,47.59359,-54.27349
2022-02-24 18:54:01+00:00,302.0,15.18,301.0,16.8,13.68,47.59359,-54.27349
2022-02-24 19:04:01+00:00,288.0,13.65,297.0,15.35,13.68,47.59359,-54.27349
2022-02-24 19:14:00+00:00,278.0,13.2,285.0,14.61,14.32,47.59359,-54.27349
2022-02-24 19:24:00+00:00,291.0,12.91,293.0,14.99,14.32,47.59359,-54.27349
2022-02-24 19:34:00+00:00,291.0,14.11,298.0,16.63,14.32,47.59359,-54.27349
2022-02-24 19:44:00+00:00,283.0,12.87,280.0,14.91,14.32,47.59359,-54.27349
2022-02-24 19:54:00+00:00,295.0,14.28,300.0,16.12,14.32,47.59359,-54.27349
2022-02-24 20:04:00+00:00,285.0,13.14,279.0,14.73,14.32,47.59359,-54.27349
2022-02-24 20:14:00+00:00,303.0,10.22,294.0,13.16,13.68,47.59359,-54.27349
2022-02-24 20:24:00+00:00,290.0,11.34,291.0,14.66,13.68,47.59359,-54.27349
2022-02-24 20:34:00+00:00,285.0,12.91,288.0,14.74,13.68,47.59359,-54.27349
2022-02-24 20:44:00+00:00,290.0,12.38,288.0,14.87,13.68,47.59359,-54.27349
2022-02-24 20:54:00+00:00,295.0,12.77,300.0,15.86,13.68,47.59359,-54.27349
2022-02-24 21:04:00+00:00,294.0,13.44,296.0,14.94,13.68,47.59359,-54.27349
2022-02-24 21:14:01+00:00,306.0,12.72,302.0,15.48,13.05,47.59359,-54.27349
2022-02-24 21:24:01+00:00,308.0,10.08,301.0,14.46,13.05,47.59359,-54.27349
2022-02-24 21:34:01+00:00,317.0,6.36,291.0,11.89,13.05,47.59359,-54.27349
2022-02-24 21:44:01+00:00,311.0,9.36,297.0,13.82,13.05,47.59359,-54.27349
2022-02-24 21:54:01+00:00,303.0,13.37,303.0,16.1,13.05,47.59359,-54.27349
2022-02-24 22:04:01+00:00,295.0,12.87,300.0,15.5,13.05,47.59359,-54.27349
2022-02-24 22:14:00+00:00,294.0,12.25,298.0,15.87,12.57,47.59359,-54.27349
2022-02-24 22:24:00+00:00,297.0,12.86,300.0,15.41,12.57,47.59359,-54.27349
2022-02-24 22:34:00+00:00,299.0,13.91,300.0,16.14,12.57,47.59359,-54.27349
2022-02-24 22:44:00+00:00,297.0,13.61,303.0,15.64,12.57,47.59359,-54.27349
2022-02-24 22:54:00+00:00,305.0,12.65,307.0,17.1,12.57,47.59359,-54.27349
2022-02-24 23:04:00+00:00,306.0,12.6,301.0,15.7,12.57,47.59359,-54.27349
2022-02-24 23:14:01+00:00,291.0,12.59,283.0,14.76,12.41,47.59359,-54.27349
2022-02-24 23:24:01+00:00,293.0,11.26,292.0,14.82,12.41,47.59359,-54.27349
2022-02-24 23:34:01+00:00,310.0,7.91,298.0,12.7,12.41,47.59359,-54.27349
2022-02-24 23:44:01+00:00,318.0,5.75,309.0,8.34,12.41,47.59359,-54.27349
2022-02-24 23:54:01+00:00,319.0,5.76,309.0,7.76,12.41,47.59359,-54.27349
